Train No Train Name From To Distance Stops avg_speed (km/hr)
14056 Brahmaputra Mail Delhi Dibrugarh 2597 59 49
A Train's "Departure" Station, "Arrival" Station and "Distance" may vary. Although we have verified some of this data from enquiry.indianrail.gov.in
Train No Start Date (yyyy-mm-dd) Status Delay Time Source
14056 2017-01-14 Late 06 hours 40 minutes Source
14056 2017-01-16 Late 08 hours 00 minutes Source
14056 2017-01-26 Late 05 hours 50 minutes Source
14056 2017-01-27 Late 07 hours 05 minutes Source
14056 2017-02-09 Late 09 hours 10 minutes Source
14056 2017-02-10 Late 09 hours 20 minutes Source
14056 2017-02-27 Late 06 hours 10 minutes Source
14056 2017-03-04 Late 09 hours 15 minutes Source
14056 2017-03-16 Late 07 hours 05 minutes Source
14056 2017-03-30 Late 05 hours 25 minutes Source
14056 2017-04-05 Late 05 hours 57 minutes Source
14056 2017-04-09 Late 09 hours 00 minutes Source
14056 2017-04-13 Late 06 hours 35 minutes Source
14056 2017-04-16 Late 05 hours 03 minutes Source
14056 2017-04-17 Late 06 hours 43 minutes Source
14056 2017-04-18 Late 06 hours 00 minutes Source
14056 2017-04-21 Late 05 hours 40 minutes Source
14056 2017-04-25 Late 06 hours 35 minutes Source
14056 2017-04-28 Late 07 hours 20 minutes Source
14056 2017-04-30 Late 09 hours 20 minutes Source
Page 1 of 1, showing 20 records out of 20 total